sat.trackr.live / text

‹ back to catalog

STARLINK-32741

NORAD 62526 · 2025-004R

PAYLOAD ACTIVE UNKNOWN

§ Identity

Operator
Country
US
Launch date
2025-01-08
Launch site
AFETR
Launch vehicle
Mass (kg)
RCS (m²)

Purposes: comms

External: N2YO · Heavens-Above · Gunter

§ Orbital elements

Epoch: 2026-09-21T12:06:59.500512Z

Period
94.27 min
Inclination
43.0070°
Eccentricity
0.0002465
Mean motion
15.27582218 rev/d
Perigee alt
481.4 km
Apogee alt
484.7 km
Semi-major
6,861.2 km
B*
3.2067e-4
RAAN
190.7488°
Arg perigee
264.7891°
Mean anomaly
95.2680°
Rev number
9,644

§ Raw data

STARLINK-327411 62526U 25004R   26264.50485533  .00008573  00000+0  32067-3 0  99982 62526  43.0070 190.7488 0002465 264.7891  95.2680 15.27582218 96442

JSON: /api/v1/satellites/62526 · /tle

For live sub-satellite position, see the globe view (requires WebGL).

§ Visibility from observer

Set your observer location to see the next 7 days of passes ≥ 10°. The values pass through the URL so the page stays shareable.

No JS? Fill the form by hand. The geolocation button needs JavaScript.